Date,TemperatureHighF,TemperatureAvgF,TemperatureLowF,DewpointHighF,DewpointAvgF,DewpointLowF,HumidityHigh,HumidityAvg,HumidityLow,PressureMaxIn,PressureMinIn,WindSpeedMaxMPH,WindSpeedAvgMPH,GustSpeedMaxMPH,PrecipitationSumIn
2013-4-1,71,60,53,56,52,49,96,77,49,30.14,30.04,8,1,9,0.10
2013-4-2,75,62,48,56,52,46,95,72,50,30.16,30.03,8,1,8,0.00
2013-4-3,77,63,48,59,52,47,95,70,40,30.11,29.95,8,0,9,0.00
2013-4-4,67,58,52,58,53,43,96,84,52,30.09,29.94,14,2,14,0.41
2013-4-5,69,60,54,54,51,48,92,73,52,30.14,30.08,13,2,13,0.00
2013-4-6,71,61,54,55,51,44,87,71,50,30.17,30.07,17,3,17,0.00
2013-4-7,70,59,50,55,49,44,95,70,51,30.12,29.74,15,2,15,0.07
2013-4-8,68,59,49,49,32,22,95,41,17,30.00,29.73,27,7,28,0.00
2013-4-9,76,66,56,35,31,28,37,28,17,30.09,30.00,24,6,24,0.00
2013-4-10,89,77,67,54,44,34,39,32,24,30.15,29.94,22,4,22,0.00
2013-4-11,80,69,54,50,39,30,78,37,17,29.99,29.80,17,2,17,0.00
2013-4-12,83,67,50,54,44,37,78,46,24,29.88,29.75,9,1,11,0.00
2013-4-13,81,63,49,52,48,44,85,60,30,29.86,29.74,11,1,11,0.00
2013-4-14,77,61,46,46,42,28,85,54,22,29.89,29.73,26,3,26,0.00
2013-4-15,66,56,46,45,38,30,85,54,29,29.91,29.77,15,2,19,0.00
2013-4-16,67,58,51,32,26,19,47,30,17,30.15,29.91,26,6,26,0.00
2013-4-17,70,61,52,32,26,19,41,27,15,30.27,30.15,23,5,25,0.00
2013-4-18,78,66,56,44,33,24,59,30,18,30.25,30.14,17,2,17,0.00
2013-4-19,84,68,50,53,46,40,76,47,27,30.22,30.01,12,1,12,0.00
2013-4-20,87,72,62,48,39,29,52,32,13,30.09,29.92,18,3,19,0.00
2013-4-21,91,73,54,47,41,32,69,37,14,30.02,29.88,17,1,17,0.00
2013-4-22,89,76,59,47,35,18,60,27,10,29.94,29.82,20,3,21,0.00
2013-4-23,86,73,58,42,26,17,49,19,8,29.92,29.80,22,5,23,0.00
2013-4-24,88,69,51,50,37,24,67,37,12,29.83,29.73,20,3,20,0.00
2013-4-25,78,64,48,52,46,40,82,56,34,30.03,29.81,15,2,15,0.00
2013-4-26,84,65,48,56,50,45,91,60,36,30.18,30.03,10,1,10,0.00
2013-4-27,90,70,51,57,51,46,88,56,24,30.18,29.99,10,1,10,0.00
2013-4-28,92,74,54,56,51,41,84,50,18,30.01,29.82,11,1,11,0.00
2013-4-29,94,81,67,54,46,38,61,31,17,29.86,29.71,15,1,15,0.00
2013-4-30,85,77,68,47,25,8,37,17,7,29.84,29.72,26,6,26,0.00